Starlink 35883

operational
NORAD ID: 66892 Int'l Des: 2025-283 Owner: SPXS Country: US Constellation: starlink
LEOCIRCULAR

Über Starlink 35883

Beschreibung wird geladen...

Live-Position

3D-Globus wird geladen...

Nächste Überflüge

Höhenverlauf

Altitude vs Time

uPlot chart will show altitude changes over time

Zweizeiliger Elementsatz

1 66892U 25283Q 25347.58336806 -.01293211 49288-3 -36207-2 0 9996
2 66892 53.1550 69.6313 0001129 51.6331 333.8846 15.92990564 2504
Epoch: 13. Dez. 2025 • Age: 16 hours

Aktueller Status

Höhe 304.2 km
Geschwindigkeit 7.73 km/s
Subsatellitenpunkt -18.52°S, 90.43°E
Startdatum 4. Dez. 2025
Alter 9 days
Typ internet

Technische Details

Klassifizierung Payload
Masse 575.00 kg
Trockenmasse 530.00 kg
Gesamtmasse 575.00 kg
Länge 0.30 m
Durchmesser 4.10 m
Spannweite 29.00 m
Form Box + pan
Hersteller SPXS
Bus-Typ Starlink V2MO
Phasenstatus In Orbit
Besitzer/Staat SPXS/US

Große Konstellationen

Loading constellations...